Tracking 30990 objects as of 8-Jul-2025
HD Live streaming from Space Station
objects crossing your sky now

GAOFEN DUOMO (GFDM)

Track GAOFEN DUOMO (GFDM) now!
10-day predictions


NORAD ID: 45856
Int'l Code: 2020-042A
Perigee: 637.0 km
Apogee: 656.3 km
Inclination: 97.8 °
Period: 97.5 minutes
Semi major axis: 7017 km
RCS: Unknown
Launch date: July 3, 2020
Source: People's Republic of China (PRC)
Launch site: Taiyaun Space Center, China (TSC)
Your satellite tracking list
Your tracking list is empty




NASA's NSSDC Master Catalog

Two Line Element Set (TLE):
1 45856U 20042A   25189.56209424  .00000587  00000-0  90710-4 0  9994
2 45856  97.8233 255.9745 0013724 104.9945 255.2786 14.76785345270293
Source of the keplerian elements: AFSPC